Theta_e
345 351 357 354 353 351 350 347 346 345 344 347 349 348 347 344 343 343 341 338 337 335 338 341 344 346 346 347 346 343 342 340 339 337 333 330 333 336 337 338 338 335 336
348 352 356 356 354 351 349 347 346 344 343 342 345 347 347 345 343 341 339 337 336 335 336 339 340 341 344 344 343 341 340 339 337 336 336 335 335 335 336 336 337 336 335
347 352 353 356 355 353 348 346 345 343 341 341 342 346 347 345 343 340 337 338 335 335 335 337 338 337 338 337 336 336 335 334 334 335 338 331 329 334 335 337 337 336 337
350 349 351 356 355 352 348 346 344 340 342 343 345 345 344 343 341 339 338 339 336 335 335 336 336 336 336 337 337 337 337 334 334 338 332 329 329 334 331 332 336 337 340
348 348 352 355 355 352 348 346 344 340 344 346 345 343 340 339 337 339 338 339 337 336 336 337 337 337 337 336 337 338 340 337 340 338 331 328 328 337 338 337 335 335 336
345 350 353 355 354 353 350 346 344 340 343 344 345 343 340 339 338 337 339 339 338 336 336 338 338 338 338 337 337 337 337 337 339 328 329 334 333 340 339 338 339 339 337
347 350 352 355 355 353 349 346 343 340 341 342 340 340 341 342 340 340 343 341 339 337 337 338 339 340 338 338 339 338 338 339 334 333 331 334 336 340 339 339 342 343 343
347 349 351 353 353 352 349 347 345 341 340 341 341 340 342 340 341 343 344 341 339 338 338 339 340 340 340 341 340 339 339 338 333 331 330 333 339 339 339 339 339 339 340
342 348 349 350 350 349 348 346 345 344 343 343 343 342 343 342 346 345 344 341 340 338 339 340 341 341 341 339 337 335 335 335 329 327 328 326 336 337 337 336 335 337 340
338 345 347 348 347 345 344 345 345 344 342 343 342 342 339 338 343 345 343 342 340 339 340 340 338 338 337 333 328 327 329 329 323 318 321 325 331 332 333 334 337 336 336
336 337 344 347 346 345 343 343 344 343 341 340 338 338 336 332 335 338 337 338 340 339 339 335 331 333 331 330 328 327 326 315 312 316 319 329 330 330 336 334 334 335 332
331 334 337 345 345 345 344 341 338 339 337 334 332 333 332 329 328 333 332 337 338 338 334 330 325 327 327 318 317 322 309 307 308 314 319 329 327 333 332 332 330 330 329
331 333 335 337 341 342 342 340 338 337 337 335 333 331 329 326 327 329 328 331 330 330 324 323 318 315 312 310 308 306 305 305 305 314 321 328 330 331 327 328 326 326 327
330 332 335 337 337 342 342 341 339 336 336 335 333 332 323 322 323 324 328 330 331 327 319 316 313 310 307 303 302 302 301 303 302 311 316 324 324 325 326 324 322 322 322
326 331 334 336 338 341 340 342 339 336 336 334 333 332 326 324 324 325 328 321 318 317 314 311 306 303 301 301 300 300 299 299 301 308 309 319 318 319 319 318 318 316 316
320 328 334 336 338 340 340 340 339 338 336 335 335 335 329 326 326 326 319 317 315 311 308 303 301 300 299 299 299 298 297 298 299 303 306 308 314 313 312 312 312 312 312
318 325 330 334 338 340 339 339 340 339 337 335 335 335 330 329 326 321 316 313 310 306 303 302 301 300 299 299 297 297 297 297 298 299 302 302 305 309 307 307 307 308 308
318 319 325 335 336 338 339 339 339 339 337 336 336 335 332 328 321 314 311 309 306 304 302 299 298 298 297 296 295 296 296 298 297 297 298 298 299 300 304 303 303 305 304
316 318 319 326 334 336 338 338 337 338 336 335 336 334 331 322 314 309 306 306 306 302 299 298 296 296 294 295 295 294 296 296 296 298 295 297 297 297 296 302 304 303 302
314 316 318 320 321 328 338 338 335 336 335 336 335 329 318 314 310 305 305 306 304 300 298 297 295 295 294 293 297 296 297 298 297 295 295 298 296 295 294 295 293 294 302
312 312 316 318 318 319 327 334 333 330 331 329 324 319 311 308 306 304 306 304 301 298 296 296 295 294 293 293 293 294 295 294 296 297 297 297 295 295 293 293 292 292 292
312 312 312 316 319 320 322 332 334 326 322 318 317 311 305 305 307 307 305 302 298 297 296 295 295 294 293 292 289 290 289 292 293 294 294 294 292 292 292 292 291 291 290
312 313 314 315 317 323 326 329 311 309 306 305 304 302 301 302 304 305 303 301 298 297 295 294 293 293 292 291 290 288 286 286 286 291 291 291 291 290 290 291 292 291 290
309 314 314 315 317 324 333 321 315 316 308 305 304 303 305 301 302 303 302 300 297 296 294 293 294 292 291 290 291 292 288 287 284 283 289 289 290 290 289 289 290 290 290
305 309 315 316 320 327 331 320 316 311 307 303 300 300 299 300 301 301 301 299 296 295 292 292 292 290 290 289 289 288 287 287 286 284 282 285 287 289 289 289 288 288 289
304 306 315 317 323 326 327 318 317 312 304 299 298 297 298 300 300 300 299 298 294 293 292 292 291 290 289 289 288 287 286 285 284 283 281 282 283 286 287 288 288 288 288
Wind_Speed
12 13 18 17 16 14 13 12 11 11 10 9 10 11 13 12 11 12 12 12 11 10 9 11 13 15 11 12 13 12 10 9 8 7 5 4 7 8 8 7 6 6 5
18 15 18 17 17 15 13 12 11 10 9 8 9 11 12 12 11 11 12 11 11 11 10 11 12 13 14 14 12 10 9 7 6 4 4 2 3 7 7 7 7 5 7
18 16 14 17 16 15 14 12 11 9 8 9 8 8 11 12 11 10 12 12 12 12 12 12 12 12 12 11 9 8 7 6 3 5 7 2 4 8 7 6 5 4 4
17 15 14 18 17 16 14 12 10 9 10 11 12 13 12 11 11 13 11 11 11 12 12 12 11 11 10 9 8 7 5 4 3 6 4 3 6 8 7 6 6 5 7
17 15 15 19 17 16 15 13 11 9 9 11 11 10 10 10 10 11 9 10 10 10 10 10 10 9 9 8 6 6 8 2 6 7 3 5 3 6 7 5 5 6 6
16 15 20 19 17 15 14 13 12 11 10 12 11 10 9 8 7 7 8 10 9 8 8 7 7 7 7 5 4 5 5 5 9 6 2 4 5 8 6 6 5 5 5
15 15 16 21 18 16 14 12 12 11 12 11 10 10 9 8 5 2 6 11 9 7 6 6 6 7 6 5 4 4 3 5 6 6 3 5 5 8 6 7 9 8 7
17 16 14 19 18 17 15 13 12 12 12 11 10 9 9 6 3 4 12 10 9 7 6 6 6 6 4 5 3 3 3 5 6 6 5 6 9 8 8 8 9 10 10
13 16 13 13 15 16 16 14 11 11 10 10 9 8 9 7 7 14 13 11 8 7 6 5 5 5 5 4 4 4 5 7 5 4 9 4 10 10 8 9 9 10 11
8 14 15 12 11 10 9 14 14 11 9 9 9 8 9 7 9 11 11 9 8 7 6 6 5 4 4 3 2 3 6 8 6 4 5 4 11 9 7 7 11 10 13
7 7 14 15 12 11 10 8 11 13 11 9 9 10 8 4 6 7 9 9 9 8 7 5 5 4 4 3 3 3 6 3 6 5 3 11 11 8 11 10 11 14 12
8 7 8 16 15 13 10 10 6 6 5 6 6 7 5 6 4 9 8 10 9 8 8 6 4 3 3 2 2 4 3 6 4 5 3 11 7 10 11 12 13 13 12
9 6 7 8 13 12 9 9 6 6 6 6 10 8 7 5 5 5 4 4 4 6 3 4 2 2 3 3 4 4 3 3 3 3 8 13 10 11 9 13 12 12 12
10 10 9 9 8 13 9 8 8 6 7 6 6 9 5 4 4 4 4 5 5 4 4 3 2 3 3 5 4 4 5 3 2 3 7 13 11 11 10 11 12 12 12
8 10 10 9 8 10 10 8 5 7 9 6 5 6 5 5 5 4 4 4 4 2 4 3 4 4 4 4 4 4 5 5 5 4 3 13 11 11 10 11 11 11 11
7 9 11 11 8 7 8 11 7 6 5 7 5 6 7 5 5 5 5 5 2 4 4 4 4 3 3 3 3 3 3 4 3 7 4 5 11 9 9 9 10 10 11
8 8 10 11 11 12 9 9 8 8 6 6 6 6 6 5 7 7 5 4 3 3 5 4 4 3 4 3 4 2 3 3 3 3 6 4 5 7 7 7 9 10 11
7 10 10 13 12 12 12 8 8 8 7 8 7 5 6 9 10 6 5 4 4 4 4 4 3 3 3 4 3 4 1 1 1 4 5 4 4 3 4 5 8 10 10
9 9 9 11 15 14 11 7 7 8 6 8 8 6 7 10 9 6 5 5 5 4 4 3 3 3 3 3 4 2 2 2 2 3 4 5 4 4 2 5 7 11 9
11 9 10 8 9 10 11 9 4 5 6 6 7 7 11 8 9 7 5 5 5 5 4 3 3 3 3 2 3 3 2 1 2 2 2 2 4 4 1 1 2 4 12
8 8 9 10 10 7 7 10 7 5 6 5 6 10 9 9 10 8 5 6 6 5 5 4 3 4 4 4 2 4 1 2 2 2 2 2 4 3 2 3 2 2 3
9 9 9 9 13 11 8 7 5 6 4 6 6 7 6 7 10 8 8 6 7 5 6 5 4 2 2 4 2 0 3 4 4 3 1 2 1 1 2 2 2 3 2
13 12 9 9 9 12 8 10 8 7 6 4 5 5 5 6 6 11 9 7 6 6 5 4 4 4 2 2 4 3 3 1 3 3 1 2 3 1 2 3 3 2 1
11 12 10 8 9 10 15 12 17 10 10 3 6 6 3 5 7 10 10 8 7 5 6 4 4 2 3 2 2 3 2 3 1 4 3 4 4 4 5 3 4 3 3
8 7 10 10 8 10 14 14 11 10 6 9 8 12 8 6 8 9 10 8 7 5 5 7 4 4 3 3 2 1 2 0 3 3 5 4 5 4 5 5 4 4 5
8 8 7 10 9 9 14 15 14 15 14 12 12 10 8 7 7 9 9 7 7 7 7 5 5 5 4 3 2 1 1 1 1 1 2 3 5 4 3 5 6 5 5
Wind_Direction
131 144 143 142 137 135 129 121 113 106 104 111 115 121 120 114 106 94 79 70 64 61 69 65 58 58 61 83 89 81 70 65 56 43 38 51 65 47 47 35 8 15 66
133 145 145 144 141 138 130 120 112 105 103 111 127 135 134 126 114 102 86 75 70 68 74 72 67 63 69 65 70 72 67 57 39 0 322 233 138 82 48 28 8 356 25
134 140 147 145 140 137 130 125 120 115 115 123 129 141 140 127 115 98 90 76 72 74 76 75 71 68 69 69 66 61 56 47 18 311 303 266 191 83 65 25 8 346 343
136 140 143 144 140 136 133 130 121 115 123 123 121 115 117 120 116 102 95 83 75 75 77 76 73 72 70 67 62 58 53 54 315 303 294 78 58 59 48 21 355 352 2
133 155 137 140 140 139 138 136 129 121 121 135 121 118 118 124 115 108 104 97 85 83 79 76 75 72 69 64 59 46 42 11 315 297 295 104 82 66 45 21 349 331 333
143 127 136 142 142 139 140 142 137 132 134 137 123 113 113 108 113 123 123 116 102 91 82 70 68 66 63 60 53 46 33 348 317 287 167 133 95 64 32 354 323 310 306
105 128 139 143 144 142 143 143 140 140 144 145 129 112 106 96 91 120 136 128 116 101 84 64 55 61 66 65 59 49 18 341 301 303 33 102 87 53 15 344 343 338 324
127 136 143 144 147 148 148 149 147 148 146 152 138 124 108 86 34 216 142 132 122 103 81 68 65 70 65 59 50 27 339 308 313 314 49 69 47 29 5 10 10 3 359
133 132 144 152 152 153 154 153 155 156 159 155 151 141 119 95 81 115 130 131 119 104 91 72 77 89 86 69 41 7 325 313 309 307 68 45 33 20 9 6 5 16 31
137 143 149 154 153 156 160 157 158 159 165 159 153 135 131 126 113 119 122 123 121 116 103 96 88 96 107 110 81 332 309 313 282 65 58 35 29 10 5 17 48 42 43
151 164 154 155 165 168 163 167 165 161 163 166 159 152 156 175 169 136 122 126 128 129 119 113 121 156 167 180 177 291 333 332 11 71 57 36 25 10 59 54 52 52 43
168 179 168 161 167 172 164 150 176 169 166 167 169 170 194 196 154 136 137 138 143 143 142 149 173 186 208 190 232 310 31 9 351 80 48 39 27 66 63 59 53 44 41
174 176 183 162 164 163 158 160 177 170 181 194 180 181 194 132 131 137 142 158 157 169 176 175 180 81 45 36 26 3 38 14 15 63 52 46 50 74 63 60 52 44 42
172 174 174 185 168 161 149 168 179 174 183 200 181 176 139 130 160 173 169 175 184 167 135 94 83 94 40 33 33 9 6 4 35 95 64 61 60 63 61 59 50 43 39
182 167 167 170 170 162 166 174 184 199 177 192 158 156 144 166 174 182 139 104 101 86 96 89 64 41 45 31 16 34 10 10 25 108 84 78 69 65 59 52 45 35 29
225 172 166 174 173 166 179 167 184 193 204 168 160 160 162 167 172 121 101 104 111 95 77 84 77 52 26 41 354 22 28 10 36 103 114 98 94 75 60 47 35 24 18
206 189 174 172 174 171 202 171 180 182 216 139 151 151 162 136 111 108 106 106 113 93 93 67 49 49 28 16 358 10 66 26 11 92 122 125 117 108 89 56 27 7 4
207 200 182 181 177 175 181 197 182 170 200 147 145 145 160 123 113 107 118 135 123 96 88 77 50 36 39 33 353 331 47 86 356 98 85 91 112 107 79 57 27 358 355
232 208 192 174 177 179 174 204 180 183 149 153 143 149 130 117 115 119 131 142 116 98 89 104 59 75 42 7 314 318 46 349 187 99 119 116 116 73 36 18 5 352 341
235 227 188 169 172 168 169 189 182 152 140 144 139 128 124 123 122 124 144 124 115 110 103 84 101 74 61 353 310 320 152 258 112 142 161 138 145 130 126 315 10 356 354
247 244 206 170 178 170 167 180 172 147 133 106 104 117 124 134 141 147 144 128 126 116 113 119 101 86 20 353 19 348 287 178 162 218 213 198 124 173 159 74 42 12 340
232 247 228 196 177 183 187 179 155 134 106 115 117 111 117 136 159 143 132 123 116 110 96 81 74 104 80 32 59 306 359 340 346 246 80 98 108 152 64 49 3 316 341
213 228 238 202 180 182 157 112 94 83 83 84 106 105 129 155 160 132 123 123 123 115 116 107 89 73 123 24 62 124 29 316 321 338 329 52 353 27 317 299 281 266 335
220 211 226 219 191 171 144 138 157 161 157 142 131 130 147 149 127 121 118 120 119 116 113 121 99 92 90 113 38 45 87 138 113 329 333 336 336 345 336 326 302 287 289
246 237 201 206 192 158 155 149 158 143 121 129 124 137 147 132 121 117 119 124 125 117 115 114 104 87 68 100 100 47 10 316 214 185 281 305 341 334 326 314 312 295 278
246 228 220 185 166 150 147 150 163 155 146 141 150 145 153 135 129 122 114 125 119 116 118 113 102 88 86 80 64 38 135 150 315 356 304 311 284 289 322 305 291 285 275